Weather in Tsentralnaya usadba Tretyego Goskonezavoda

Russia / Perm Krai     56°21′49″N   55°05′15″E
temp.,
°C
wind,
m/s
gust,
m/s
humid.,
%
clouds,
%
prec.,
mm/h
press.,
hPa
HPBL,
m
3 march, wed
wed323:00−3ssw71296100 1.8 997447
02:00−2wsw5109597 0.8 997351
05:00−4wsw5109691 0.9 998287
08:00−5wsw489695 0.2 997236
11:00−3w469696 0.5 999294
14:00−2wsw459391 0.1 998467
17:00−2sw479596 0.3 999458
20:00−5sw4897100 0.3 998231
4 march, thu
thu423:00−5sw599699 0.6 999339
02:00−7wnw61193100 0.7 999496
05:00−13w499796 0.7 1000170
08:00−13wsw499790 0.0 1000159
11:00−9sw699495 0.4 1000410
14:00−6sw61092100 0.5 998609
17:00−4ssw71191100 0.6 997724
20:00−4ssw81495100 1.6 994789
5 march, fri
fri523:00−2wsw51295100 4.1 993857
02:00−6wsw7149178 0.1 994463
05:00−7wsw6119488 0.1 997394
08:00−8wsw489598 0.1 999196
11:00−7wsw359599 0.1 1000245
14:00−5wsw2392100 0.0 1000348
17:00−4wsw1293100 0.1 1000226
20:00−6nw3597100 0.3 1000134
6 march, sat
sat623:00−8nw51094100 0.4 1004343
02:00−17wnw459543 0.0 100885
05:00−19w349946 0.0 101147
08:00−20w3410049 0.0 101245
11:00−17w349553 0.0 1013179
14:00−12wsw238879 0.0 1012358
17:00−12ssw239284 0.0 1010202
20:00−17sw239539 0.0 101020
7 march, sun
sun723:00−18sw239726 0.0 101021
02:00−17sw349790 0.1 100965
05:00−17wsw359791 0.1 101085
08:00−18w339893 0.1 101039
11:00−16wsw349372 0.1 1011199
14:00−14sw46909 0.0 1012359
17:00−13sw479130 0.0 1011416
20:00−16s479556 0.0 1011110